EW6304 Weather Reports


Display with metric or nautical units.
time (UTC)temp
F
wind
direction
speed
MPH
gust
MPH
rain 1hr
in
rain 24hr
in
rain mn
in
humidity
%
barometer
mb
20260904225455 79 273 0.0 1.0 0.00 0.00 0.00 63 1007.4
20260904225000 80 273 1.0 2.0 0.00 0.00 0.00 60 1007.5
20260904224956 79 273 1.0 2.0 0.00 0.00 0.00 64 1007.5
20260904223955 80 273 0.0 3.0 0.00 0.00 0.00 58 1007.4
20260904223454 80 273 0.0 3.0 0.00 0.00 0.00 60 1007.4
20260904222952 81 273 1.0 3.0 0.00 0.00 0.00 57 1007.4
20260904222453 81 273 2.0 6.0 0.00 0.00 0.00 56 1007.4
20260904221951 82 271 2.0 6.0 0.00 0.00 0.00 54 1007.3
20260904221457 83 296 2.0 8.0 0.00 0.00 0.00 54 1007.2
20260904221452 82 246 1.0 4.0 0.00 0.00 0.00 54 1007.3
20260904221108 83 270 2.0 8.0 0.00 0.00 0.00 53 1007.2
20260904215956 83 245 3.0 7.0 0.00 0.00 0.00 53 1007.2
20260904215952 83 297 2.0 7.0 0.00 0.00 0.00 53 1007.2
20260904214948 83 294 3.0 6.0 0.00 0.00 0.00 53 1007.2
20260904214450 83 274 3.0 7.0 0.00 0.00 0.00 53 1007.1
20260904213948 83 273 2.0 7.0 0.00 0.00 0.00 53 1007.2
20260904213448 83 244 2.0 7.0 0.00 0.00 0.00 55 1007.2
20260904212948 82 218 2.0 7.0 0.00 0.00 0.00 55 1007.1
20260904212455 82 320 2.0 4.0 0.00 0.00 0.00 55 1007.2
20260904212449 82 293 2.0 7.0 0.00 0.00 0.00 55 1007.1
20260904211450 82 300 2.0 8.0 0.00 0.00 0.00 54 1007.1
20260904210948 82 313 3.0 8.0 0.00 0.00 0.00 54 1007.2
20260904210452 83 327 2.0 6.0 0.00 0.00 0.00 54 1007.2
20260904205948 83 261 1.0 5.0 0.00 0.00 0.00 55 1007.2
20260904205450 83 277 2.0 6.0 0.00 0.00 0.00 56 1007.1
20260904204949 83 309 2.0 6.0 0.00 0.00 0.00 57 1007.2
20260904204449 83 281 2.0 7.0 0.00 0.00 0.00 56 1007.1
20260904203950 83 304 3.0 7.0 0.00 0.00 0.00 55 1007.1
20260904203449 83 300 2.0 7.0 0.00 0.00 0.00 55 1007.1
20260904202949 83 261 2.0 4.0 0.00 0.00 0.00 57 1007.2
20260904202450 83 234 2.0 4.0 0.00 0.00 0.00 57 1007.2
20260904201949 84 110 1.0 3.0 0.00 0.00 0.00 57 1007.2
20260904201448 84 173 1.0 7.0 0.00 0.00 0.00 56 1007.2
20260904200948 84 294 2.0 7.0 0.00 0.00 0.00 56 1007.3
20260904200443 84 290 1.0 6.0 0.00 0.00 0.00 57 1007.2
20260904195949 84 22 3.0 9.0 0.00 0.00 0.00 56 1007.0
20260904195943 84 333 2.0 7.0 0.00 0.00 0.00 55 1007.1
20260904194949 84 300 2.0 7.0 0.00 0.00 0.00 60 1007.0
20260904194944 83 273 2.0 9.0 0.00 0.00 0.00 54 1007.1
20260904193942 84 300 3.0 7.0 0.00 0.00 0.00 56 1007.1
20260904193442 84 308 2.0 6.0 0.00 0.00 0.00 58 1007.1
20260904192943 84 307 1.0 4.0 0.00 0.00 0.00 57 1007.1
20260904192442 83 306 2.0 7.0 0.00 0.00 0.00 58 1007.1
20260904191943 83 287 3.0 9.0 0.00 0.00 0.00 56 1007.1
20260904191441 83 257 3.0 9.0 0.00 0.00 0.00 54 1007.2
20260904190943 83 309 3.0 8.0 0.00 0.00 0.00 55 1007.3
20260904190443 83 240 4.0 8.0 0.00 0.00 0.00 56 1007.3
20260904185938 84 266 5.0 11.0 0.00 0.00 0.00 54 1007.3
20260904185438 84 290 4.0 11.0 0.00 0.00 0.00 53 1007.2
20260904184938 85 299 2.0 7.0 0.00 0.00 0.00 54 1007.1
20260904184436 84 281 3.0 9.0 0.00 0.00 0.00 54 1007.1
20260904183937 83 269 3.0 9.0 0.00 0.00 0.00 55 1007.2
20260904183437 83 240 2.0 8.0 0.00 0.00 0.00 54 1007.2
20260904182936 83 248 2.0 8.0 0.00 0.00 0.00 57 1007.2
20260904182441 83 270 2.0 9.0 0.00 0.00 0.00 57 1007.3
20260904182437 83 233 3.0 9.0 0.00 0.00 0.00 57 1007.3
20260904181437 83 300 2.0 4.0 0.00 0.00 0.00 58 1007.4
20260904180936 83 262 3.0 8.0 0.00 0.00 0.00 61 1007.4
20260904180436 83 258 3.0 8.0 0.00 0.00 0.00 57 1007.4
20260904175941 83 312 2.0 7.0 0.00 0.00 0.00 59 1007.5
20260904175936 83 293 3.0 7.0 0.00 0.00 0.00 58 1007.4
20260904174936 83 248 2.0 8.0 0.00 0.00 0.00 59 1007.5
20260904174434 83 65 3.0 8.0 0.00 0.00 0.00 60 1007.5
20260904173935 83 290 4.0 8.0 0.00 0.00 0.00 60 1007.4
20260904173439 83 298 2.0 8.0 0.00 0.00 0.00 58 1007.4
20260904173435 83 306 3.0 8.0 0.00 0.00 0.00 59 1007.5
20260904172437 83 278 3.0 10.0 0.00 0.00 0.00 58 1007.6
20260904171934 83 280 3.0 10.0 0.00 0.00 0.00 58 1007.7
20260904171439 83 276 2.0 5.0 0.00 0.00 0.00 62 1007.6
20260904171434 83 284 2.0 8.0 0.00 0.00 0.00 62 1007.6
20260904170432 83 284 3.0 7.0 0.00 0.00 0.00 61 1007.6
20260904165934 83 267 3.0 8.0 0.00 0.00 0.00 62 1007.8
20260904165433 82 333 2.0 8.0 0.00 0.00 0.00 62 1007.8
20260904164933 82 307 3.0 8.0 0.00 0.00 0.00 64 1007.9
20260904164438 82 267 3.0 7.0 0.00 0.00 0.00 64 1007.9
20260904164433 82 293 3.0 8.0 0.00 0.00 0.00 64 1007.8
20260904163433 81 253 4.0 9.0 0.00 0.00 0.00 64 1007.9
20260904162933 81 261 3.0 9.0 0.00 0.00 0.00 65 1007.9
20260904162442 82 347 3.0 9.0 0.00 0.00 0.00 67 1008.0
20260904162435 82 229 2.0 7.0 0.00 0.00 0.00 64 1008.0
20260904161430 81 286 4.0 10.0 0.00 0.00 0.00 67 1008.1
20260904160931 81 261 3.0 10.0 0.00 0.00 0.00 65 1008.2
20260904160431 81 281 3.0 8.0 0.00 0.00 0.00 67 1008.2
20260904155933 80 321 3.0 9.0 0.00 0.00 0.00 69 1008.2
20260904155928 80 311 3.0 8.0 0.00 0.00 0.00 68 1008.2
20260904154928 80 274 2.0 9.0 0.00 0.00 0.00 69 1008.2
20260904154429 80 282 2.0 4.0 0.00 0.00 0.00 71 1008.3
20260904153933 79 302 2.0 8.0 0.00 0.00 0.00 72 1008.3
20260904153927 80 273 2.0 5.0 0.00 0.00 0.00 71 1008.3
20260904152928 79 267 2.0 8.0 0.00 0.00 0.00 72 1008.3
20260904152427 78 284 2.0 7.0 0.00 0.00 0.00 72 1008.3
20260904151928 78 273 2.0 6.0 0.00 0.00 0.00 73 1008.4
20260904151428 78 283 3.0 7.0 0.00 0.00 0.00 73 1008.4
20260904150927 78 252 2.0 7.0 0.00 0.00 0.00 73 1008.5
20260904150429 78 266 2.0 8.0 0.00 0.00 0.00 76 1008.5
20260904145929 77 306 2.0 8.0 0.00 0.00 0.00 75 1008.6
20260904145433 77 336 3.0 8.0 0.00 0.00 0.00 79 1008.5
20260904145429 77 247 2.0 7.0 0.00 0.00 0.00 77 1008.6
20260904145044 76 290 3.0 8.0 0.00 0.00 0.00 79 1008.7
20260904143924 76 288 2.0 7.0 0.00 0.00 0.00 81 1008.8
20260904143424 75 273 1.0 4.0 0.00 0.00 0.00 84 1008.8
20260904142925 75 246 2.0 7.0 0.00 0.00 0.00 84 1008.8
20260904142425 74 282 2.0 7.0 0.00 0.00 0.00 87 1008.8
20260904141924 73 304 1.0 3.0 0.00 0.00 0.00 89 1008.9
20260904141424 73 299 1.0 4.0 0.00 0.00 0.00 91 1008.9
20260904140923 72 287 2.0 5.0 0.00 0.00 0.00 92 1008.9
20260904140426 71 290 2.0 5.0 0.00 0.00 0.00 94 1008.9
20260904135924 71 284 1.0 4.0 0.00 0.00 0.00 95 1008.9
20260904135425 70 258 1.0 4.0 0.00 0.00 0.00 96 1008.8
20260904134926 70 277 1.0 3.0 0.00 0.00 0.00 96 1009.0
20260904134425 70 304 1.0 3.0 0.00 0.00 0.00 97 1009.0
20260904133925 70 302 1.0 3.0 0.00 0.00 0.00 97 1009.0
20260904133429 70 269 1.0 4.0 0.00 0.00 0.00 97 1008.9
20260904133424 70 280 1.0 3.0 0.00 0.00 0.00 97 1009.0
20260904132425 69 269 2.0 4.0 0.00 0.00 0.00 97 1008.9
20260904131928 69 258 2.0 3.0 0.00 0.00 0.00 97 1009.1
20260904131923 69 286 2.0 3.0 0.00 0.00 0.00 97 1009.0
20260904130922 69 278 2.0 3.0 0.00 0.00 0.00 97 1009.2
20260904130423 68 270 1.0 3.0 0.00 0.00 0.00 97 1009.1
20260904125923 68 286 1.0 3.0 0.00 0.00 0.00 97 1009.1
20260904125428 68 283 2.0 4.0 0.00 0.00 0.00 97 1009.1
20260904125424 68 287 2.0 4.0 0.00 0.00 0.00 97 1009.1
20260904124430 68 279 1.0 4.0 0.00 0.00 0.00 97 1009.1
20260904124424 68 281 1.0 3.0 0.00 0.00 0.00 97 1009.1
20260904124041 68 278 1.0 4.0 0.00 0.00 0.00 97 1009.1
20260904123538 67 254 1.0 3.0 0.00 0.00 0.00 97 1009.3
20260904122420 67 54 1.0 2.0 0.00 0.00 0.00 97 1009.2
20260904121918 67 54 1.0 2.0 0.00 0.01 0.00 97 1009.1
20260904121423 67 55 0.0 1.0 0.00 0.01 0.00 97 1009.1
20260904121419 67 54 0.0 2.0 0.00 0.01 0.00 97 1009.1
20260904120419 67 55 0.0 1.0 0.00 0.01 0.00 97 1009.1
20260904115918 67 55 0.0 2.0 0.00 0.01 0.00 97 1009.1
20260904115417 67 55 0.0 2.0 0.00 0.01 0.00 97 1009.1
20260904114917 67 55 0.0 1.0 0.00 0.01 0.00 97 1009.1
20260904114419 67 55 1.0 1.0 0.00 0.01 0.00 97 1009.1
20260904113915 66 55 1.0 2.0 0.00 0.01 0.00 97 1009.1
20260904113421 66 55 0.0 1.0 0.00 0.01 0.00 97 1009.1
20260904113416 67 55 0.0 2.0 0.00 0.01 0.00 97 1009.1
20260904112414 66 55 0.0 1.0 0.00 0.02 0.00 97 1009.1
20260904111914 66 55 0.0 1.0 0.00 0.03 0.00 97 1009.1
20260904111413 66 55 0.0 1.0 0.00 0.05 0.00 97 1009.0
20260904110914 66 55 0.0 1.0 0.00 0.06 0.00 97 1009.0
20260904110414 66 55 0.0 1.0 0.00 0.06 0.00 97 1009.0
20260904105913 66 55 1.0 2.0 0.00 0.06 0.00 97 1009.0
20260904105413 66 55 1.0 2.0 0.00 0.06 0.00 97 1009.1
20260904104913 66 83 0.0 2.0 0.00 0.06 0.00 97 1009.0
20260904104415 66 84 0.0 0.0 0.00 0.06 0.00 97 1008.9
20260904103917 66 84 0.0 0.0 0.00 0.06 0.00 97 1008.8
20260904103912 66 84 0.0 0.0 0.00 0.06 0.00 97 1008.8
20260904102912 66 84 0.0 0.0 0.00 0.06 0.00 97 1008.9
20260904102531 66 83 0.0 1.0 0.00 0.06 0.00 97 1008.7
20260904102418 66 84 0.0 1.0 0.00 0.06 0.00 97 1008.8
20260904102411 66 84 0.0 0.0 0.00 0.06 0.00 97 1008.8
20260904100920 66 84 0.0 1.0 0.00 0.10 0.00 97 1008.6
20260904100911 66 84 0.0 1.0 0.00 0.07 0.00 97 1008.6
20260904100413 66 84 0.0 1.0 0.00 0.10 0.00 97 1008.6
20260904095410 66 84 0.0 0.0 0.00 0.10 0.00 97 1008.6
20260904094909 66 84 0.0 0.0 0.00 0.11 0.00 97 1008.6
20260904094408 66 84 0.0 0.0 0.00 0.11 0.00 97 1008.7
20260904093909 66 84 0.0 0.0 0.00 0.11 0.00 97 1008.7
20260904093409 66 84 0.0 1.0 0.00 0.11 0.00 96 1008.8
20260904092908 66 84 0.0 1.0 0.00 0.11 0.00 96 1008.6
20260904092408 66 84 0.0 0.0 0.00 0.11 0.00 97 1008.7
20260904091912 66 84 0.0 0.0 0.00 0.11 0.00 96 1008.6
20260904091907 66 84 0.0 0.0 0.00 0.11 0.00 96 1008.7
20260904091525 66 84 0.0 0.0 0.00 0.12 0.00 96 1008.6
20260904090905 66 84 0.0 0.0 0.00 0.12 0.00 96 1008.6
20260904085905 66 84 0.0 0.0 0.00 0.13 0.00 96 1008.6
20260904085406 66 84 0.0 0.0 0.00 0.13 0.00 96 1008.6
20260904084905 66 84 0.0 0.0 0.00 0.14 0.00 97 1008.8
20260904084410 66 84 0.0 0.0 0.00 0.17 0.00 97 1008.7
20260904084404 66 84 0.0 0.0 0.00 0.15 0.00 97 1008.7
20260904083402 67 84 0.0 0.0 0.00 0.18 0.00 97 1008.6
20260904082904 67 84 0.0 0.0 0.00 0.19 0.00 97 1008.7
20260904082404 67 84 0.0 1.0 0.00 0.19 0.00 97 1008.8
20260904081902 67 83 0.0 1.0 0.00 0.19 0.00 96 1008.8
20260904081404 67 84 0.0 0.0 0.00 0.19 0.00 97 1008.9
20260904080904 67 84 0.0 0.0 0.00 0.19 0.00 97 1008.8
20260904080404 67 84 0.0 1.0 0.00 0.19 0.00 96 1008.6
20260904075904 67 83 0.0 1.0 0.00 0.19 0.00 96 1008.7
20260904075403 67 84 0.0 1.0 0.00 0.19 0.00 96 1008.8
20260904074903 67 84 0.0 1.0 0.00 0.19 0.00 96 1008.9
20260904074403 67 84 0.0 1.0 0.00 0.19 0.00 96 1008.9
20260904073900 67 84 0.0 1.0 0.00 0.19 0.00 96 1009.1
20260904073403 67 83 0.0 1.0 0.00 0.19 0.00 97 1009.2
20260904072901 67 84 0.0 0.0 0.00 0.19 0.00 96 1009.3
20260904072403 67 84 0.0 0.0 0.00 0.19 0.00 96 1009.2
20260904071906 67 83 0.0 1.0 0.00 0.19 0.00 96 1009.3
20260904071901 67 84 0.0 1.0 0.00 0.19 0.00 96 1009.2
20260904070900 67 83 0.0 1.0 0.00 0.19 0.00 96 1009.4
20260904070406 67 84 0.0 1.0 0.00 0.19 0.00 96 1009.5
20260904070402 67 84 0.0 0.0 0.00 0.19 0.00 96 1009.5
20260904070016 67 84 0.0 1.0 0.00 0.19 0.00 96 1009.5
20260904065520 67 84 0.0 1.0 0.00 0.19 0.00 96 1009.5
20260904064401 67 84 0.0 1.0 0.00 0.19 0.00 96 1009.5
20260904063900 67 83 0.0 1.0 0.00 0.19 0.00 96 1009.5
20260904063402 66 84 0.0 0.0 0.00 0.19 0.00 96 1009.5
20260904062906 66 84 0.0 1.0 0.00 0.19 0.00 96 1009.5
20260904062406 66 83 0.0 1.0 0.00 0.19 0.00 96 1009.5
20260904062401 66 83 0.0 1.0 0.00 0.19 0.00 96 1009.4
20260904061401 66 84 0.0 1.0 0.00 0.19 0.00 96 1009.6
20260904060901 66 84 0.0 1.0 0.00 0.19 0.00 96 1009.7
20260904060400 66 84 0.0 1.0 0.00 0.19 0.00 96 1009.6
20260904055858 66 83 0.0 1.0 0.00 0.19 0.00 96 1009.7
20260904055356 66 84 0.0 1.0 0.00 0.19 0.00 96 1009.9
20260904054858 66 84 0.0 2.0 0.00 0.19 0.00 96 1009.8
20260904054356 66 83 0.0 2.0 0.00 0.19 0.00 96 1009.8
20260904053859 66 84 0.0 0.0 0.00 0.19 0.00 96 1009.8
20260904053854 66 83 0.0 2.0 0.00 0.19 0.00 96 1009.9
20260904052855 66 84 0.0 0.0 0.00 0.19 0.00 96 1009.9
20260904052355 65 84 0.0 0.0 0.00 0.19 0.00 96 1010.0
20260904051854 65 84 0.0 0.0 0.00 0.19 0.00 95 1009.9
20260904051354 65 84 0.0 0.0 0.00 0.19 0.00 95 1010.0
20260904050855 65 84 0.0 0.0 0.00 0.19 0.00 95 1010.1
20260904050358 65 84 0.0 0.0 0.00 0.19 0.00 95 1010.2
20260904050352 65 84 0.0 0.0 0.00 0.19 0.00 95 1010.1
20260904045353 65 84 0.0 1.0 0.00 0.19 0.00 95 1010.3
20260904044855 66 84 0.0 1.0 0.00 0.19 0.00 96 1010.4
20260904044851 66 84 0.0 1.0 0.00 0.19 0.00 95 1010.3
20260904043857 66 84 0.0 1.0 0.00 0.19 0.00 95 1010.5
20260904043852 66 84 0.0 0.0 0.00 0.19 0.00 95 1010.4
20260904042852 66 84 0.0 1.0 0.00 0.19 0.00 95 1010.4
20260904042348 66 84 0.0 0.0 0.00 0.19 0.00 95 1010.5
20260904041850 66 84 0.0 0.0 0.00 0.19 0.00 95 1010.5
20260904041348 66 84 0.0 1.0 0.00 0.19 0.00 95 1010.5
20260904040849 66 84 0.0 1.0 0.00 0.19 0.00 95 1010.6
20260904040348 66 84 0.0 0.0 0.00 0.19 0.00 95 1010.6
20260904035847 66 84 0.0 0.0 0.00 0.19 0.19 95 1010.5
20260904035346 66 84 0.0 0.0 0.00 0.19 0.19 95 1010.7
20260904034846 67 84 0.0 0.0 0.00 0.19 0.19 95 1010.7
20260904034347 67 84 0.0 0.0 0.00 0.19 0.19 95 1010.7
20260904033847 67 84 0.0 1.0 0.00 0.19 0.19 95 1010.8
20260904033353 67 84 0.0 1.0 0.00 0.19 0.19 95 1010.7
20260904033347 67 84 0.0 1.0 0.00 0.19 0.19 95 1010.8
20260904032347 67 84 0.0 0.0 0.00 0.19 0.19 95 1010.8
20260904031847 67 84 0.0 0.0 0.00 0.19 0.19 95 1010.8
20260904031345 67 84 0.0 0.0 0.00 0.19 0.19 95 1010.8
20260904030844 67 84 0.0 0.0 0.00 0.19 0.19 94 1010.8
20260904030346 67 84 0.0 0.0 0.00 0.19 0.19 95 1010.8
20260904025843 67 84 0.0 0.0 0.00 0.19 0.19 94 1010.8
20260904025343 67 84 0.0 0.0 0.00 0.19 0.19 95 1010.9
20260904024845 68 84 0.0 0.0 0.00 0.19 0.19 95 1011.0
20260904024345 68 84 0.0 0.0 0.00 0.19 0.19 95 1011.1
20260904023845 68 84 0.0 0.0 0.00 0.19 0.19 95 1011.1
20260904023344 68 84 0.0 0.0 0.00 0.19 0.19 94 1011.1
20260904022845 68 84 0.0 0.0 0.00 0.19 0.19 94 1011.2
20260904022345 68 84 0.0 0.0 0.00 0.19 0.19 94 1011.2
20260904021843 68 84 0.0 0.0 0.00 0.19 0.19 94 1011.2
20260904021344 68 84 0.0 0.0 0.00 0.19 0.19 94 1011.2
20260904020845 68 84 0.0 0.0 0.00 0.19 0.19 94 1011.2
20260904020344 68 84 0.0 0.0 0.00 0.19 0.19 94 1011.2
20260904015850 68 84 0.0 0.0 0.00 0.19 0.19 94 1011.2
20260904015844 68 84 0.0 0.0 0.00 0.19 0.19 94 1011.3
20260904015503 68 84 0.0 0.0 0.00 0.19 0.19 94 1011.4
20260904014844 68 84 0.0 0.0 0.00 0.19 0.19 94 1011.3
20260904013843 68 84 0.0 0.0 0.00 0.19 0.19 94 1011.5
20260904013342 69 84 0.0 0.0 0.00 0.19 0.19 94 1011.6
20260904012842 69 84 0.0 0.0 0.00 0.19 0.19 94 1011.7
20260904012347 69 84 0.0 0.0 0.00 0.19 0.19 93 1011.8
20260904012343 69 84 0.0 0.0 0.00 0.19 0.19 94 1011.8
20260904011841 69 84 0.0 0.0 0.00 0.19 0.19 94 1011.7
20260904010843 69 84 0.0 0.0 0.00 0.19 0.19 93 1011.6
20260904010837 69 84 0.0 0.0 0.00 0.19 0.19 93 1011.6
20260904005839 69 84 0.0 0.0 0.00 0.19 0.19 93 1011.6
20260904005338 69 84 0.0 0.0 0.00 0.19 0.19 93 1011.4
20260904004838 69 84 0.0 0.0 0.00 0.19 0.19 93 1011.3
20260904004339 70 84 0.0 0.0 0.00 0.19 0.19 93 1011.3
20260904003839 70 84 0.0 0.0 0.00 0.19 0.19 93 1011.2
20260904003343 70 84 0.0 0.0 0.00 0.19 0.19 92 1011.1
20260904003337 70 84 0.0 0.0 0.00 0.19 0.19 92 1011.0
20260904002338 70 84 0.0 0.0 0.00 0.19 0.19 93 1011.2
20260904001839 70 84 0.0 0.0 0.00 0.19 0.19 92 1011.0
20260904001339 70 84 0.0 1.0 0.00 0.19 0.19 92 1011.0
20260904000838 71 84 0.0 1.0 0.00 0.19 0.19 92 1010.8
20260904000340 71 84 0.0 1.0 0.00 0.19 0.19 92 1010.9
20260903235837 71 84 0.0 1.0 0.00 0.19 0.19 91 1010.8
20260903235339 71 84 0.0 1.0 0.00 0.19 0.19 91 1010.9
20260903234837 71 84 0.0 0.0 0.00 0.19 0.19 91 1011.1
20260903234337 71 84 0.0 0.0 0.00 0.19 0.19 91 1010.9
20260903233843 72 84 0.0 0.0 0.00 0.19 0.19 90 1010.9
20260903233838 72 84 0.0 0.0 0.00 0.19 0.19 91 1010.8
20260903233338 72 84 0.0 0.0 0.00 0.19 0.19 91 1010.8
20260903232957 72 84 0.0 1.0 0.00 0.19 0.19 90 1010.9
20260903231839 73 84 0.0 1.0 0.00 0.19 0.19 90 1010.7
20260903231339 73 84 0.0 1.0 0.00 0.19 0.19 90 1010.6
20260903230838 73 83 0.0 1.0 0.00 0.19 0.19 90 1010.5
20260903230336 73 84 0.0 0.0 0.00 0.19 0.19 90 1010.6
20260903225837 74 84 0.0 1.0 0.00 0.19 0.19 89 1010.5